Retour au catalogue

METEOR 1-16

ActifMétéoPO
NORAD 7209·PAYLOAD·🇷🇺 Russia

Lancé Mar 5, 1974 depuis Plesetsk Cosmodrome

Loading…

Prochains Passages (prochaines 24 heures)

TLE

FraisSource: Space-Track

Époque: Sep 14, 2026, 13:16 UTC

1 07209U 74011A   26257.55316956  .00000048  00000-0  18274-4 0  9991
2 07209  81.2260 301.8667 0039326 146.1019 214.2680 14.14563281707872

Suivez METEOR 1-16 en temps réel avec AllMySat

Download on the App Store